Terminal Aerodrome Forecast
Issued by NWS Cleveland, OH

Home | Current Version | Previous Version | Graphics & Text | Print | Product List | Glossary On
Versions: 1 2 3 4 5 6 7 8 9 10 11 12 13 14 15 16 17
000
FTUS41 KCLE 222000 AAA
TAFYNG
TAF AMD
KYNG 222014Z 2220/2318 28012G22KT P6SM VCSH BKN035 OVC050
      TEMPO 2220/2222 28010KT 5SM -PLRA BKN018 OVC035
     FM222300 26010KT P6SM BKN035 OVC045
     FM230800 27012KT P6SM -SHSN BKN028 OVC035
     FM231400 28015G22KT P6SM BKN035=

USA.gov is the U.S. government's official web portal to all federal, state and local government web resources and services.